Weather History for Hobart, OK

Change the Weather History Date:

Tuesday, November 5, 2013

  Actual Average Record
Temperature  
Mean Temperature 58 °F -  
Max Temperature 69 °F 60 °F 81 °F (2008)
Min Temperature 46 °F 41 °F 30 °F (2010)
Degree Days  
Heating Degree Days 6    
Growing Degree Days 8 (Base 50)    
Moisture  
Dew Point 57 °F    
Average Humidity 93    
Maximum Humidity 100    
Minimum Humidity 78    
Precipitation  
Precipitation 1.07 in - - ()
Sea Level Pressure  
Sea Level Pressure 29.95 in    
Wind  
Wind Speed 17 mph (South)    
Max Wind Speed 36 mph    
Max Gust Speed 43 mph    
Visibility 6 miles    
Events Fog , Rain , Thunderstorm    
Averages and records for this station are not official NWS values.
T = Trace of Precipitation, MM = Missing Value Source: NWS Daily Summary

Daily Weather History Graph

Daily Weather History Graph

Search for Another Location

Airport:

Trip Planner

Search our weather history database for the weather conditions in past years. The results will help you decide how hot, cold, wet, or windy it might be!

Date:

Astronomy

Nov. 05, 2013 Rise Set
Actual Time 7:01 AM CST 5:37 PM CST
Civil Twilight 6:34 AM CST 6:04 PM CST
Nautical Twilight 6:04 AM CST 6:34 PM CST
Astronomical Twilight 5:35 AM CST 7:04 PM CST
Moon 9:14 AM CST (11/5) 7:44 PM CST (11/5)
Length of Visible Light 11h 29m
Length of Day
10h 36m
Waxing Crescent, 7% of the Moon is Illuminated
Nov 5
Waxing Crescent
Nov 9
First Quarter
Nov 17
Full
Nov 25
Last Quarter
Dec 2
New

Hourly Weather History & Observations

Time (CST) Temp. Dew Point Humidity Pressure Visibility Wind Dir Wind Speed Gust Speed Precip Events Conditions
12:53 AM 57.9 °F 55.9 °F 93% 29.96 in 8.0 mi South 17.3 mph - N/A   Overcast
1:49 AM 59.0 °F 55.4 °F 88% 29.99 in 7.0 mi South 16.1 mph - N/A   Overcast
1:53 AM 59.0 °F 55.9 °F 90% 29.96 in 7.0 mi South 13.8 mph - N/A   Overcast
2:53 AM 59.0 °F 55.9 °F 90% 29.96 in 8.0 mi South 16.1 mph - N/A   Overcast
3:46 AM 59.0 °F 55.4 °F 88% 29.97 in 9.0 mi South 16.1 mph - N/A   Overcast
3:53 AM 59.0 °F 55.9 °F 90% 29.94 in 9.0 mi South 15.0 mph - N/A   Overcast
4:23 AM 59.0 °F 57.2 °F 94% 29.97 in 9.0 mi South 15.0 mph 21.9 mph N/A   Overcast
4:53 AM 59.0 °F 57.0 °F 93% 29.94 in 4.0 mi South 13.8 mph - 0.00 in Rain Light Rain
5:34 AM 59.0 °F 57.2 °F 94% 29.96 in 2.5 mi SSE 16.1 mph - 0.01 in Rain Light Rain
5:43 AM 59.0 °F 57.2 °F 94% 29.96 in 3.0 mi SSE 15.0 mph - 0.01 in Rain Light Rain
5:53 AM 59.0 °F 57.9 °F 96% 29.94 in 3.0 mi SSE 15.0 mph - 0.01 in Rain Light Rain
6:53 AM 57.9 °F 57.9 °F 100% 29.94 in 3.0 mi SSE 15.0 mph - 0.01 in Rain Light Rain
7:01 AM 57.2 °F 57.2 °F 100% 29.95 in 3.0 mi SSE 16.1 mph - 0.00 in Rain Light Rain
7:14 AM 57.2 °F 57.2 °F 100% 29.95 in 2.5 mi SSE 16.1 mph - 0.00 in Rain Light Rain
7:31 AM 57.2 °F 57.2 °F 100% 29.96 in 1.2 mi SSE 16.1 mph 23.0 mph 0.00 in Rain Light Rain
7:53 AM 59.0 °F 57.9 °F 96% 29.94 in 2.5 mi South 16.1 mph - 0.00 in Rain Light Rain
8:03 AM 59.0 °F 57.2 °F 94% 29.97 in 1.2 mi SSE 13.8 mph - 0.00 in Rain Light Rain
8:45 AM 59.0 °F 59.0 °F 100% 29.97 in 2.0 mi South 18.4 mph - 0.00 in   Overcast
8:53 AM 59.0 °F 59.0 °F 100% 29.96 in 2.5 mi South 19.6 mph - 0.00 in Rain Light Rain
9:10 AM 59.0 °F 59.0 °F 100% 29.97 in 1.8 mi South 15.0 mph - 0.00 in   Overcast
9:18 AM 59.0 °F 59.0 °F 100% 29.97 in 2.0 mi South 16.1 mph 24.2 mph 0.00 in   Overcast
9:45 AM 60.8 °F 59.0 °F 94% 29.97 in 3.0 mi South 16.1 mph - 0.00 in   Overcast
9:53 AM 60.1 °F 59.0 °F 96% 29.95 in 3.0 mi South 17.3 mph - 0.00 in   Overcast
10:12 AM 60.8 °F 59.0 °F 94% 29.97 in 2.5 mi South 17.3 mph - N/A   Overcast
10:46 AM 60.8 °F 60.8 °F 100% 29.97 in 1.5 mi South 13.8 mph - 0.01 in Rain Light Rain
10:53 AM 61.0 °F 60.1 °F 97% 29.94 in 2.5 mi South 15.0 mph - 0.01 in Rain Light Rain
11:01 AM 60.8 °F 60.8 °F 100% 29.96 in 3.0 mi South 13.8 mph - 0.00 in Rain Light Rain
11:09 AM 60.8 °F 60.8 °F 100% 29.96 in 1.8 mi South 15.0 mph - 0.01 in Rain Light Rain
11:19 AM 60.8 °F 60.8 °F 100% 29.95 in 2.5 mi South 16.1 mph - 0.01 in Rain Light Rain
11:39 AM 62.6 °F 60.8 °F 94% 29.94 in 5.0 mi South 16.1 mph - 0.02 in Rain Light Rain
11:53 AM 62.1 °F 61.0 °F 96% 29.92 in 7.0 mi South 15.0 mph - 0.02 in   Overcast
12:28 PM 64.4 °F 62.6 °F 94% 29.92 in 9.0 mi South 12.7 mph - 0.00 in   Overcast
12:53 PM 64.9 °F 62.1 °F 90% 29.88 in 10.0 mi South 16.1 mph - 0.00 in   Overcast
1:22 PM 68.0 °F 62.6 °F 83% 29.89 in 10.0 mi South 19.6 mph - N/A   Mostly Cloudy
1:53 PM 66.9 °F 63.0 °F 87% 29.86 in 10.0 mi South 16.1 mph - N/A   Overcast
2:17 PM 68.0 °F 62.6 °F 83% 29.87 in 10.0 mi South 17.3 mph - N/A   Overcast
2:53 PM 69.1 °F 62.1 °F 78% 29.83 in 10.0 mi South 19.6 mph - N/A   Mostly Cloudy
3:53 PM 69.1 °F 62.1 °F 78% 29.83 in 10.0 mi South 11.5 mph - N/A   Mostly Cloudy
4:29 PM 69.8 °F 62.6 °F 78% 29.85 in 10.0 mi South 13.8 mph - 0.00 in   Overcast
4:53 PM 68.0 °F 63.0 °F 84% 29.82 in 10.0 mi SSE 17.3 mph - 0.00 in   Overcast
5:53 PM 66.0 °F 62.1 °F 87% 29.82 in 10.0 mi South 18.4 mph 28.8 mph N/A   Mostly Cloudy
6:53 PM 64.9 °F 62.1 °F 90% 29.84 in 10.0 mi South 16.1 mph - N/A   Mostly Cloudy
7:50 PM 64.4 °F 62.6 °F 94% 29.90 in 10.0 mi SSW 8.1 mph - N/A Thunderstorm Mostly Cloudy
7:51 PM 64.9 °F 62.1 °F 90% 29.88 in 10.0 mi SSW 6.9 mph - N/A Thunderstorm Mostly Cloudy
8:10 PM 60.8 °F 55.4 °F 82% 29.91 in 10.0 mi NNW 20.7 mph - N/A Thunderstorm Thunderstorm
8:28 PM 55.4 °F 53.6 °F 94% 29.94 in 3.0 mi North 35.7 mph 42.6 mph 0.06 in Rain , Thunderstorm Thunderstorms and Rain
8:30 PM 53.6 °F 51.8 °F 94% 29.95 in 1.8 mi North 32.2 mph 42.6 mph 0.10 in Rain , Thunderstorm Thunderstorms and Rain
8:37 PM 51.8 °F 51.8 °F 100% 29.98 in 0.8 mi North 31.1 mph 42.6 mph 0.28 in Rain , Thunderstorm Heavy Thunderstorms and Rain
8:46 PM 51.8 °F 50.0 °F 94% 29.98 in 0.5 mi North 29.9 mph 39.1 mph 0.79 in Fog , Rain , Thunderstorm Heavy Thunderstorms and Rain
8:53 PM 51.1 °F 50.0 °F 96% 29.96 in 1.2 mi North 26.5 mph 36.8 mph 0.82 in Rain , Thunderstorm Heavy Thunderstorms and Rain
8:55 PM 51.8 °F 50.0 °F 94% 29.97 in 2.0 mi North 24.2 mph 35.7 mph 0.00 in Rain , Thunderstorm Thunderstorms and Rain
9:03 PM 51.8 °F 48.2 °F 88% 30.00 in 5.0 mi North 23.0 mph 36.8 mph 0.02 in Rain , Thunderstorm Rain
9:16 PM 50.0 °F 48.2 °F 94% 30.01 in 3.0 mi North 23.0 mph 29.9 mph 0.09 in Rain , Thunderstorm Heavy Rain
9:29 PM 50.0 °F 48.2 °F 94% 29.99 in 4.0 mi North 25.3 mph 34.5 mph 0.13 in Rain Heavy Rain
9:53 PM 50.0 °F 48.0 °F 93% 30.04 in 9.0 mi North 18.4 mph 24.2 mph 0.16 in Rain Light Rain
10:03 PM 48.2 °F 46.4 °F 93% 30.05 in 8.0 mi North 18.4 mph - 0.01 in Rain Light Rain
10:15 PM 48.2 °F 46.4 °F 93% 30.06 in 8.0 mi North 17.3 mph - 0.02 in Rain Rain
10:53 PM 48.0 °F 44.1 °F 86% 30.06 in 10.0 mi North 20.7 mph - 0.04 in Rain Light Rain
11:53 PM 46.9 °F 41.0 °F 80% 30.08 in 10.0 mi North 17.3 mph 25.3 mph 0.00 in   Overcast